Regional Weather Roundup
Issued by NWS

Home | Current Version | Previous Version | Graphics & Text | Print | Product List | Glossary On
Versions: 1 2 3 4 5 6 7 8 9 10 11 12 13 14 15 16 17 18 19 20 21 22 23 24 25 26 27 28 29 30 31 32 33 34 35 36 37 38 39 40 41 42 43 44 45 46 47 48 49 50
000
ASUS45 KCYS 252210
RWRWY

WYOMING REGIONAL WEATHER ROUNDUP
NATIONAL WEATHER SERVICE CHEYENNE WY
400 PM MDT WED MAR 25 2015

NOTE:  "FAIR" INDICATES FEW OR NO CLOUDS BELOW 12,000 FEET
WITH NO SIGNIFICANT WEATHER AND/OR OBSTRUCTIONS TO VISIBILITY.

WYZ001-252300-
YELLOWSTONE NATIONAL PARK

CITY           SKY/WX    TMP DP  RH WIND       PRES   REMARKS
LK YELLOWSTONE   N/A     33  15  47 VRB6      30.28R WCI  28
W YELLOWSTONE  NOT AVBL

$$
WYZ002>013-054>058-071-098>099-252300-
NORTHERN WYOMING

CITY           SKY/WX    TMP DP  RH WIND       PRES   REMARKS
JACKSON        MOSUNNY   37  18  44 SW9       30.29S WCI  31
CODY           FAIR      48  16  27 W15G23    30.17F
GREYBULL       CLOUDY    54  17  23 NW7       30.16F
WORLAND        PTSUNNY   51  20  29 N5        30.18F
SHERIDAN       FAIR      50  25  37 NW17      30.16F
BUFFALO        CLOUDY    42  30  62 SE7       30.18F
GILLETTE       CLOUDY    45  24  43 NW14G23   30.18F
HULETT         CLOUDY    41  27  56 NW7       30.20F
NEWCASTLE      FAIR      43  21  42 NW17G26   30.23R

$$
WYZ014>020-022>026-101>103-252300-
CENTRAL WYOMING

CITY           SKY/WX    TMP DP  RH WIND       PRES   REMARKS
BIG PINEY      FAIR      42  10  27 N17G28    30.28S
PINEDALE       FAIR      37  16  41 NW21G29   30.28R WCI  27
DUBOIS         FAIR      36   9  32 NW18G32   30.22S WCI  25
LANDER         FAIR      48  22  35 CALM      30.17F
RIVERTON       FAIR      47  23  38 SE10      30.19F
CASPER         CLOUDY    42  25  50 NW9       30.22S
DOUGLAS        CLOUDY    43  24  47 NW12      30.21S

$$
WYZ021-027>030-104>119-252300-
SOUTHERN WYOMING

CITY           SKY/WX    TMP DP  RH WIND       PRES   REMARKS
EVANSTON       FAIR      42  19  39 SW10      30.30S
KEMMERER       FAIR      37  21  52 NW18      30.30R WCI  27
FORT BRIDGER   FAIR      44  17  34 W20G28    30.31F
ROCK SPRINGS   PTSUNNY   45  15  30 W21G26    30.25S
DIXON          FAIR      44  20  37 SW14      30.27F
RAWLINS        FAIR      40  17  39 NW7       30.24S
SARATOGA       MOCLDY    37  19  48 NW15G23   30.24S WCI  28
LARAMIE        CLOUDY    39  23  52 NW24G30   30.17R WCI  28
CHEYENNE       CLOUDY    42  20  41 N12G20    30.17S
TORRINGTON     FAIR      51  21  30 NW14G25   30.18S
PINE BLUFFS    FAIR      46  25  42 N15G21    30.19S

$$


USA.gov is the U.S. government's official web portal to all federal, state and local government web resources and services.